Location: Akdamlar
(36.8729°N, 30.5187°E)
Time: 18:11:46
(UTC+00:00)

Cosmos 1844 - Pass Details

Date: 18 September 2020
Orbit: 824 x 866 km, 70.9° (Epoch: 25 October)

Event Time Altitude Azimuth Distance (km) Brightness Sun altitude
Rises 17:41:06 0° 189° (S) 3,417 6.8 -20.6°
Reaches altitude 10° 17:43:35 10° 186° (S) 2,479 6.0 -21.1°
Maximum altitude 17:49:10 59° 108° (ESE) 979 3.6 -22.1°
Drops below altitude 10° 17:54:43 10° 30° (NNE) 2,466 6.0 -23.1°
Sets 17:57:11 0° 27° (NNE) 3,398 6.8 -23.6°
